Flag for U.S.A. Weather past 2 weeks in Pasadena, Texas, U.S.A.

Now
72 °F

Partly sunny.


Feels Like: 67 °F
Forecast: 70 / 80 °F
Wind: 6 mph from South

Location: Houston / Ellington

Current Time: Apr 1, 2015 at 9:33:54 AM

Latest Report: Apr 1, 2015 at 8:50 AM


Visibility: 7 mi

Pressure: 30.02 "Hg

Humidity: 94%

Dew point: 70 °F

Location of PasadenaLocation

Historic Weather in Pasadena — Graph

°F

Pasadena temperature yesterday

Maximum temperature yesterday: 82 °F (at 11:50 AM)
Minimum temperature yesterday: 64 °F (at 3:50 AM)
Average temperature yesterday: 72 °F

Past Weeks' High & Low Weather Summary

 TemperatureHumidityPressure
High82 °F (Mar 17, 3:50 PM)100% (Mar 19, 11:50 PM)30.24 "Hg (Mar 19, 11:50 PM)
Low50 °F (Mar 27, 6:50 AM)24% (Mar 27, 4:50 PM)29.88 "Hg (Mar 26, 3:50 AM)
Average69 °F78%30.06 "Hg
* Reported Mar 17 7:50 AM — Apr 1 7:50 AM, Pasadena, Weather by CustomWeather, © 2015

Note: Actual official high and low records may vary slightly from our data, if they occured in-between our weather recording intervals... More about our weather records

Advertising

Pasadena weather history for previous 24 hours

 ConditionsComfort  
Time TempWeatherWind HumidityBarometerVisibility
7:50 AM
Wed, Apr 1
70 °FPassing clouds.5 mph94%30.00 "Hg10 mi
6:50 AM70 °FMostly cloudy.3 mph88%29.99 "Hg10 mi
5:50 AM68 °FMostly cloudy.No wind94%29.97 "Hg10 mi
3:50 AM68 °FPassing clouds.No wind94%29.97 "Hg10 mi
2:50 AM68 °FPassing clouds.No wind94%29.99 "Hg10 mi
1:50 AM70 °FPassing clouds.No wind88%29.99 "Hg10 mi
12:50 AM70 °FPassing clouds.3 mph94%29.99 "Hg10 mi
11:50 PM
Tue, Mar 31
70 °FOvercast.8 mph94%30.01 "Hg7 mi
10:50 PM72 °FFog.7 mph88%30.01 "Hg5 mi
9:52 PM72 °FOvercast.8 mph88%30.00 "Hg10 mi
8:50 PM73 °FHigh level clouds.9 mph83%30.01 "Hg10 mi
7:50 PM75 °FOvercast.12 mph74%30.00 "Hg10 mi
6:50 PM75 °FOvercast.14 mph74%29.98 "Hg10 mi
5:50 PM81 °FOvercast.9 mph54%29.99 "Hg10 mi
3:50 PM81 °FBroken clouds.13 mph51%30.01 "Hg10 mi
2:50 PM81 °FBroken clouds.8 mph51%30.04 "Hg10 mi
1:50 PM81 °FBroken clouds.14 mph51%30.07 "Hg10 mi
12:50 PM82 °FBroken clouds.10 mph45%30.10 "Hg10 mi
11:50 AM82 °FBroken clouds.12 mph45%30.12 "Hg10 mi
10:50 AM73 °FPartly sunny.10 mph65%30.12 "Hg7 mi
9:50 AM70 °FPartly sunny.13 mph83%30.12 "Hg7 mi
Weather by CustomWeather, © 2015

See weather overviewHow to use our weather pages